Regional Weather Roundup
Issued by NWS

Home | Current Version | Previous Version | Text Only | Print | Product List | Glossary Off
Versions: 1 2 3 4 5 6 7 8 9 10 11 12 13 14 15 16 17 18 19 20 21 22 23 24 25 26 27 28 29 30 31 32 33 34 35 36 37 38 39 40 41 42 43 44 45 46 47 48 49 50

082
ASUS44 KLIX 231510
RWRLA
LOUISIANA WEATHER ROUNDUP
NATIONAL WEATHER SERVICE NEW ORLEANS LA
900 AM CST SUN NOV 23 2014

NOTE: "FAIR" INDICATES FEW OR NO CLOUDS BELOW 12,000 FEET WITH NO
      SIGNIFICANT WEATHER AND/OR OBSTRUCTIONS TO VISIBILITY.
      SKY/WX - SKY CONDITION AND SIGNIFICANT WEATHER.
      TMP - AIR TEMPERATURE.    DP   - DEWPOINT TEMPERATURE.
      RH  - RELATIVE HUMIDITY.  PRES - PRESSURE.
      HX  - HEAT INDEX.         WCI  - WIND CHILL INDEX.

*  THESE STATIONS ARE NOT NWS OR FAA STATIONS AND ARE NOT UNDER
   NWS QUALITY CONTROL.

LAZ040-048-061>063-065-066-069-231600-
SOUTHEAST LOUISIANA

CITY           SKY/WX    TMP DP  RH WIND       PRES   REMARKS
N.O. AUDUBON   NOT AVBL
N.O. INTL ARPT CLOUDY    63  60  90 S15       29.69F
N.O. LAKEFRONT LGT RAIN  65  60  84 S16       29.72F
N.O. DOWNTOWN* CLOUDY    63  57  82 S12G17    29.72F
SLIDELL        LGT RAIN  66  63  90 S8        29.71S
BATON ROUGE    CLOUDY    64  60  87 SW20G26   29.68R
BOOTHVILLE     LGT RAIN  62  62 100 SW10      29.80S
BELLE CHASSE   LGT RAIN  63  59  87 S13       29.73S
BOGALUSA*      RAIN      69  64  86 S10       29.71S
NEW ROADS*     FAIR      63  60  88 S15G21    29.66S
GONZALES*      FAIR      63  63 100 SW8       29.70R
HAMMOND*       DRIZZLE   64  61  88 SE10G17   29.64F
HOUMA*         LGT RAIN  63  61  94 S17       29.72F
PORT FOURCHON* PTSUNNY   64  63  94 S10G21    29.80F FOG

$$

LAZ041-044-053-054-231600-
SOUTHWEST LOUISIANA

CITY           SKY/WX    TMP DP  RH WIND       PRES   REMARKS
LAKE CHARLES   CLOUDY    63  60  90 SW9       29.66R
LAFAYETTE      PTSUNNY   64 N/A N/A SW10      29.66F
PATTERSON      CLOUDY    63  61  94 S10       29.71S
SALT POINT       N/A     66  60  81 VRB3      29.69R
NEW IBERIA     CLOUDY    63  61  93 S9        29.69R
CHENAULT AIRPK CLOUDY    63  61  94 S12G20    29.66S

$$

LAZ027-028-231600-
CENTRAL LOUISIANA

CITY           SKY/WX    TMP DP  RH WIND       PRES   REMARKS
FORT POLK      CLOUDY    61  59  96 SW9G18    29.61S
ALEXANDRIA INT LGT RAIN  63  61  93 SW17      29.57R FOG
ALEXANDRIA     CLOUDY    65  62  90 SW15      29.58R

$$

LAZ001-002-231600-
NORTHWEST LOUISIANA

CITY           SKY/WX    TMP DP  RH WIND       PRES   REMARKS
SHREVEPORT     LGT RAIN  62  61  96 S5        29.57F
BARKSDALE AFB  CLOUDY    62  62 100 SW6       29.58F
DTN SHREVEPORT LGT RAIN  62  60  93 S3        29.57F

$$

LAZ014-016-231600-
NORTHEAST LOUISIANA

CITY           SKY/WX    TMP DP  RH WIND       PRES   REMARKS
MONROE         LGT RAIN  62  61  96 E8        29.51F FOG
TALLULAH       LGT RAIN  63  61  93 SE16G24   29.55F

$$




USA.gov is the U.S. government's official web portal to all federal, state and local government web resources and services.